| time (UTC) | temp C | wind direction | speed KPH | gust KPH | rain 1hr cm | rain 24hr cm | rain mn cm | humidity % | barometer mb |
| 20260509011918 | 14 | 260 | 0.0 | 0.0 | 0.00 | 0.00 | 0.00 | 51 | 1010.1 |
| 20260509011415 | 15 | 260 | 0.0 | 0.0 | 0.00 | 0.00 | 0.00 | 51 | 1010.0 |
| 20260509010913 | 15 | 260 | 0.0 | 0.0 | 0.00 | 0.00 | 0.00 | 49 | 1010.0 |
| 20260509010410 | 15 | 260 | 0.0 | 0.0 | 0.00 | 0.00 | 0.00 | 50 | 1009.9 |
| 20260509005907 | 15 | 261 | 0.0 | 0.0 | 0.00 | 0.00 | 0.00 | 47 | 1010.0 |
| 20260509005405 | 16 | 260 | 1.6 | 1.6 | 0.00 | 0.00 | 0.00 | 48 | 1009.9 |
| 20260509004905 | 16 | 258 | 0.0 | 1.6 | 0.00 | 0.00 | 0.00 | 47 | 1010.4 |
| 20260509004402 | 17 | 287 | 1.6 | 3.2 | 0.00 | 0.00 | 0.00 | 47 | 1010.0 |
| 20260509003900 | 17 | 260 | 1.6 | 3.2 | 0.00 | 0.00 | 0.00 | 43 | 1010.0 |
| 20260509003357 | 17 | 272 | 1.6 | 3.2 | 0.00 | 0.00 | 0.00 | 43 | 1010.2 |
| 20260509002854 | 17 | 294 | 3.2 | 3.2 | 0.00 | 0.00 | 0.00 | 42 | 1010.1 |
| 20260509002352 | 17 | 267 | 3.2 | 4.8 | 0.00 | 0.00 | 0.00 | 43 | 1010.1 |
| 20260509001849 | 18 | 279 | 6.4 | 4.8 | 0.00 | 0.00 | 0.00 | 40 | 1010.3 |
| 20260509001345 | 18 | 289 | 4.8 | 6.4 | 0.00 | 0.00 | 0.00 | 39 | 1010.2 |
| 20260509000843 | 18 | 270 | 3.2 | 4.8 | 0.00 | 0.00 | 0.00 | 38 | 1010.4 |
| 20260509000340 | 19 | 266 | 3.2 | 3.2 | 0.00 | 0.00 | 0.00 | 39 | 1010.4 |
| 20260508235836 | 19 | 298 | 3.2 | 4.8 | 0.00 | 0.00 | 0.00 | 40 | 1010.5 |
| 20260508235333 | 19 | 262 | 6.4 | 9.7 | 0.00 | 0.00 | 0.00 | 37 | 1010.5 |
| 20260508234831 | 19 | 284 | 6.4 | 9.7 | 0.00 | 0.00 | 0.00 | 37 | 1010.4 |
| 20260508234327 | 19 | 293 | 6.4 | 9.7 | 0.00 | 0.00 | 0.00 | 38 | 1010.3 |
| 20260508233825 | 19 | 312 | 6.4 | 11.3 | 0.00 | 0.00 | 0.00 | 38 | 1010.3 |
| 20260508233324 | 19 | 284 | 3.2 | 11.3 | 0.00 | 0.00 | 0.00 | 37 | 1010.4 |
| 20260508232821 | 20 | 298 | 6.4 | 11.3 | 0.00 | 0.00 | 0.00 | 36 | 1010.5 |
| 20260508232317 | 20 | 25 | 6.4 | 11.3 | 0.00 | 0.00 | 0.00 | 36 | 1010.8 |
| 20260508231816 | 20 | 311 | 6.4 | 9.7 | 0.00 | 0.00 | 0.00 | 35 | 1010.7 |
| 20260508231311 | 20 | 280 | 4.8 | 11.3 | 0.00 | 0.00 | 0.00 | 37 | 1010.8 |
| 20260508230808 | 20 | 291 | 16.1 | 22.5 | 0.00 | 0.00 | 0.00 | 33 | 1010.4 |
| 20260508230305 | 20 | 276 | 6.4 | 6.4 | 0.00 | 0.00 | 0.00 | 35 | 1010.8 |
| 20260508225803 | 20 | 281 | 9.7 | 20.9 | 0.00 | 0.00 | 0.00 | 35 | 1010.7 |
| 20260508225259 | 20 | 306 | 9.7 | 11.3 | 0.00 | 0.00 | 0.00 | 34 | 1010.7 |
| 20260508224757 | 21 | 273 | 9.7 | 12.9 | 0.00 | 0.00 | 0.00 | 31 | 1010.5 |
| 20260508224254 | 21 | 243 | 3.2 | 9.7 | 0.00 | 0.00 | 0.00 | 38 | 1010.7 |
| 20260508223752 | 21 | 279 | 4.8 | 12.9 | 0.00 | 0.00 | 0.00 | 36 | 1010.8 |
| 20260508223249 | 21 | 292 | 4.8 | 14.5 | 0.00 | 0.00 | 0.00 | 37 | 1010.5 |
| 20260508222746 | 21 | 314 | 11.3 | 17.7 | 0.00 | 0.00 | 0.00 | 31 | 1010.5 |
| 20260508222243 | 21 | 292 | 8.0 | 16.1 | 0.00 | 0.00 | 0.00 | 35 | 1010.3 |
| 20260508221740 | 21 | 286 | 4.8 | 16.1 | 0.00 | 0.00 | 0.00 | 35 | 1010.5 |
| 20260508221236 | 21 | 273 | 6.4 | 14.5 | 0.00 | 0.00 | 0.00 | 33 | 1010.4 |
| 20260508220732 | 21 | 312 | 6.4 | 11.3 | 0.00 | 0.00 | 0.00 | 33 | 1010.5 |
| 20260508220229 | 21 | 246 | 6.4 | 11.3 | 0.00 | 0.00 | 0.00 | 38 | 1010.7 |
| 20260508215725 | 21 | 299 | 11.3 | 16.1 | 0.00 | 0.00 | 0.00 | 34 | 1010.6 |
| 20260508215221 | 21 | 269 | 6.4 | 11.3 | 0.00 | 0.00 | 0.00 | 34 | 1010.6 |
| 20260508214719 | 21 | 300 | 4.8 | 17.7 | 0.00 | 0.00 | 0.00 | 35 | 1010.6 |
| 20260508214216 | 21 | 298 | 8.0 | 14.5 | 0.00 | 0.00 | 0.00 | 32 | 1010.6 |
| 20260508213712 | 21 | 308 | 4.8 | 9.7 | 0.00 | 0.00 | 0.00 | 37 | 1010.3 |
| 20260508213209 | 21 | 299 | 4.8 | 14.5 | 0.00 | 0.00 | 0.00 | 38 | 1010.4 |
| 20260508212706 | 21 | 304 | 6.4 | 17.7 | 0.00 | 0.00 | 0.00 | 37 | 1010.3 |
| 20260508212202 | 21 | 271 | 6.4 | 14.5 | 0.00 | 0.00 | 0.00 | 34 | 1010.4 |
| 20260508211657 | 21 | 267 | 9.7 | 11.3 | 0.00 | 0.00 | 0.00 | 35 | 1010.7 |
| 20260508211154 | 21 | 271 | 6.4 | 16.1 | 0.00 | 0.00 | 0.00 | 34 | 1010.6 |
| 20260508210651 | 21 | 303 | 8.0 | 12.9 | 0.00 | 0.00 | 0.00 | 35 | 1010.6 |
| 20260508210148 | 21 | 303 | 8.0 | 17.7 | 0.00 | 0.00 | 0.00 | 34 | 1011.1 |
| 20260508205645 | 21 | 264 | 6.4 | 20.9 | 0.00 | 0.00 | 0.00 | 36 | 1010.9 |
| 20260508205142 | 22 | 319 | 14.5 | 22.5 | 0.00 | 0.00 | 0.00 | 32 | 1010.9 |
| 20260508204638 | 22 | 278 | 6.4 | 9.7 | 0.00 | 0.00 | 0.00 | 38 | 1011.1 |
| 20260508204134 | 21 | 260 | 8.0 | 14.5 | 0.00 | 0.00 | 0.00 | 34 | 1011.3 |
| 20260508203630 | 22 | 268 | 14.5 | 16.1 | 0.00 | 0.00 | 0.00 | 33 | 1011.2 |
| 20260508203126 | 22 | 297 | 3.2 | 6.4 | 0.00 | 0.00 | 0.00 | 41 | 1011.1 |
| 20260508202623 | 21 | 282 | 9.7 | 12.9 | 0.00 | 0.00 | 0.00 | 32 | 1011.7 |
| 20260508202120 | 21 | 284 | 6.4 | 11.3 | 0.00 | 0.00 | 0.00 | 34 | 1011.8 |
| 20260508201617 | 21 | 295 | 6.4 | 16.1 | 0.00 | 0.00 | 0.00 | 37 | 1011.8 |
| 20260508201113 | 21 | 297 | 4.8 | 11.3 | 0.00 | 0.00 | 0.00 | 39 | 1011.9 |
| 20260508200610 | 21 | 241 | 8.0 | 17.7 | 0.00 | 0.00 | 0.00 | 36 | 1011.8 |
| 20260508200106 | 21 | 263 | 6.4 | 17.7 | 0.00 | 0.00 | 0.00 | 38 | 1011.7 |
| 20260508195603 | 21 | 258 | 8.0 | 9.7 | 0.00 | 0.00 | 0.00 | 38 | 1011.8 |
| 20260508195059 | 21 | 321 | 9.7 | 14.5 | 0.00 | 0.00 | 0.00 | 35 | 1011.8 |
| 20260508194556 | 21 | 266 | 9.7 | 14.5 | 0.00 | 0.00 | 0.00 | 36 | 1011.6 |
| 20260508194054 | 21 | 236 | 11.3 | 14.5 | 0.00 | 0.00 | 0.00 | 36 | 1011.8 |
| 20260508193549 | 21 | 248 | 11.3 | 16.1 | 0.00 | 0.00 | 0.00 | 36 | 1011.7 |
| 20260508193047 | 21 | 290 | 4.8 | 9.7 | 0.00 | 0.00 | 0.00 | 42 | 1011.7 |
| 20260508192543 | 21 | 332 | 4.8 | 11.3 | 0.00 | 0.00 | 0.00 | 43 | 1011.8 |
| 20260508192040 | 21 | 320 | 12.9 | 14.5 | 0.00 | 0.00 | 0.00 | 37 | 1011.9 |
| 20260508191537 | 21 | 278 | 9.7 | 17.7 | 0.00 | 0.00 | 0.00 | 36 | 1012.0 |
| 20260508191033 | 21 | 264 | 9.7 | 11.3 | 0.00 | 0.00 | 0.00 | 39 | 1012.1 |
| 20260508190531 | 21 | 299 | 8.0 | 14.5 | 0.00 | 0.00 | 0.00 | 40 | 1012.2 |
| 20260508190027 | 21 | 314 | 8.0 | 12.9 | 0.00 | 0.00 | 0.00 | 39 | 1012.2 |
| 20260508185525 | 21 | 303 | 14.5 | 17.7 | 0.00 | 0.00 | 0.00 | 39 | 1012.3 |
| 20260508185022 | 20 | 267 | 6.4 | 17.7 | 0.00 | 0.00 | 0.00 | 41 | 1012.4 |
| 20260508184519 | 21 | 280 | 6.4 | 9.7 | 0.00 | 0.00 | 0.00 | 41 | 1012.2 |
| 20260508184016 | 21 | 258 | 11.3 | 17.7 | 0.00 | 0.00 | 0.00 | 35 | 1012.5 |
| 20260508183512 | 20 | 303 | 9.7 | 12.9 | 0.00 | 0.00 | 0.00 | 37 | 1012.5 |
| 20260508183008 | 20 | 263 | 12.9 | 17.7 | 0.00 | 0.00 | 0.00 | 37 | 1012.8 |
| 20260508182505 | 20 | 268 | 4.8 | 11.3 | 0.00 | 0.00 | 0.00 | 37 | 1012.9 |
| 20260508182001 | 20 | 237 | 9.7 | 24.1 | 0.00 | 0.00 | 0.00 | 38 | 1012.9 |
| 20260508181457 | 20 | 317 | 8.0 | 20.9 | 0.00 | 0.00 | 0.00 | 36 | 1013.1 |
| 20260508180955 | 20 | 294 | 4.8 | 16.1 | 0.00 | 0.00 | 0.00 | 42 | 1013.1 |
| 20260508180451 | 20 | 216 | 9.7 | 20.9 | 0.00 | 0.00 | 0.00 | 36 | 1013.2 |
| 20260508175947 | 20 | 248 | 8.0 | 17.7 | 0.00 | 0.00 | 0.00 | 41 | 1013.3 |
| 20260508175444 | 20 | 304 | 6.4 | 12.9 | 0.00 | 0.00 | 0.00 | 39 | 1013.7 |
| 20260508174942 | 20 | 323 | 8.0 | 14.5 | 0.00 | 0.00 | 0.00 | 39 | 1013.6 |
| 20260508174439 | 20 | 281 | 6.4 | 12.9 | 0.00 | 0.00 | 0.00 | 38 | 1013.8 |
| 20260508173936 | 20 | 295 | 9.7 | 16.1 | 0.00 | 0.00 | 0.00 | 39 | 1014.2 |
| 20260508173433 | 20 | 307 | 9.7 | 12.9 | 0.00 | 0.00 | 0.00 | 36 | 1013.8 |
| 20260508172929 | 20 | 267 | 4.8 | 20.9 | 0.00 | 0.00 | 0.00 | 37 | 1014.0 |
| 20260508172426 | 20 | 309 | 8.0 | 14.5 | 0.00 | 0.00 | 0.00 | 38 | 1014.1 |
| 20260508171923 | 20 | 286 | 3.2 | 4.8 | 0.00 | 0.00 | 0.00 | 41 | 1014.2 |
| 20260508171419 | 20 | 289 | 12.9 | 14.5 | 0.00 | 0.00 | 0.00 | 38 | 1014.4 |
| 20260508170916 | 20 | 307 | 6.4 | 11.3 | 0.00 | 0.00 | 0.00 | 40 | 1014.7 |
| 20260508170413 | 20 | 276 | 4.8 | 4.8 | 0.00 | 0.00 | 0.00 | 40 | 1014.4 |
| 20260508165910 | 20 | 269 | 8.0 | 11.3 | 0.00 | 0.00 | 0.00 | 38 | 1014.7 |
| 20260508165408 | 20 | 295 | 8.0 | 12.9 | 0.00 | 0.00 | 0.00 | 39 | 1014.8 |
| 20260508164903 | 20 | 318 | 6.4 | 11.3 | 0.00 | 0.00 | 0.00 | 37 | 1015.0 |
| 20260508164401 | 19 | 255 | 6.4 | 9.7 | 0.00 | 0.00 | 0.00 | 48 | 1014.8 |
| 20260508163858 | 20 | 287 | 6.4 | 11.3 | 0.00 | 0.00 | 0.00 | 44 | 1015.1 |
| 20260508163356 | 19 | 262 | 4.8 | 14.5 | 0.00 | 0.00 | 0.00 | 44 | 1015.2 |
| 20260508162851 | 19 | 243 | 9.7 | 12.9 | 0.00 | 0.00 | 0.00 | 37 | 1015.2 |
| 20260508162349 | 19 | 240 | 6.4 | 12.9 | 0.00 | 0.00 | 0.00 | 44 | 1015.4 |
| 20260508161846 | 19 | 321 | 4.8 | 14.5 | 0.00 | 0.00 | 0.00 | 37 | 1015.1 |
| 20260508161343 | 18 | 254 | 6.4 | 6.4 | 0.00 | 0.00 | 0.00 | 40 | 1015.4 |
| 20260508160840 | 19 | 311 | 6.4 | 11.3 | 0.00 | 0.00 | 0.00 | 41 | 1015.5 |
| 20260508160339 | 18 | 296 | 6.4 | 17.7 | 0.00 | 0.00 | 0.00 | 45 | 1015.6 |
| 20260508155835 | 18 | 317 | 4.8 | 9.7 | 0.00 | 0.00 | 0.00 | 43 | 1015.5 |
| 20260508155332 | 18 | 293 | 3.2 | 6.4 | 0.00 | 0.00 | 0.00 | 46 | 1015.5 |
| 20260508154828 | 18 | 277 | 6.4 | 6.4 | 0.00 | 0.00 | 0.00 | 46 | 1015.8 |
| 20260508154326 | 18 | 301 | 6.4 | 9.7 | 0.00 | 0.00 | 0.00 | 40 | 1015.7 |
| 20260508153822 | 18 | 316 | 8.0 | 16.1 | 0.00 | 0.00 | 0.00 | 40 | 1015.7 |
| 20260508153321 | 18 | 246 | 8.0 | 14.5 | 0.00 | 0.00 | 0.00 | 42 | 1015.7 |
| 20260508152815 | 18 | 273 | 1.6 | 6.4 | 0.00 | 0.00 | 0.00 | 46 | 1015.8 |
| 20260508152312 | 18 | 297 | 6.4 | 9.7 | 0.00 | 0.00 | 0.00 | 42 | 1016.0 |
| 20260508151808 | 18 | 348 | 6.4 | 9.7 | 0.00 | 0.00 | 0.00 | 41 | 1015.8 |
| 20260508151305 | 17 | 271 | 3.2 | 11.3 | 0.00 | 0.00 | 0.00 | 39 | 1015.9 |
| 20260508150802 | 17 | 319 | 6.4 | 11.3 | 0.00 | 0.00 | 0.00 | 49 | 1016.2 |
| 20260508150259 | 17 | 293 | 3.2 | 12.9 | 0.00 | 0.00 | 0.00 | 48 | 1016.2 |
| 20260508145755 | 17 | 289 | 6.4 | 6.4 | 0.00 | 0.00 | 0.00 | 49 | 1016.0 |
| 20260508145251 | 17 | 271 | 3.2 | 9.7 | 0.00 | 0.00 | 0.00 | 48 | 1016.0 |
| 20260508144748 | 17 | 299 | 4.8 | 9.7 | 0.00 | 0.00 | 0.00 | 47 | 1016.2 |
| 20260508144246 | 17 | 327 | 8.0 | 16.1 | 0.00 | 0.00 | 0.00 | 45 | 1016.2 |
| 20260508143743 | 17 | 271 | 6.4 | 9.7 | 0.00 | 0.00 | 0.00 | 43 | 1016.0 |
| 20260508143240 | 17 | 299 | 8.0 | 12.9 | 0.00 | 0.00 | 0.00 | 43 | 1016.2 |
| 20260508142736 | 16 | 318 | 4.8 | 11.3 | 0.00 | 0.00 | 0.00 | 46 | 1016.0 |
| 20260508142233 | 16 | 323 | 4.8 | 14.5 | 0.00 | 0.00 | 0.00 | 49 | 1016.1 |
| 20260508141730 | 16 | 299 | 3.2 | 11.3 | 0.00 | 0.00 | 0.00 | 47 | 1016.1 |
| 20260508141228 | 15 | 346 | 6.4 | 9.7 | 0.00 | 0.00 | 0.00 | 47 | 1016.4 |
| 20260508140725 | 15 | 310 | 4.8 | 6.4 | 0.00 | 0.00 | 0.00 | 49 | 1016.3 |
| 20260508140221 | 16 | 303 | 8.0 | 11.3 | 0.00 | 0.00 | 0.00 | 46 | 1016.2 |
| 20260508135718 | 15 | 314 | 3.2 | 9.7 | 0.00 | 0.00 | 0.00 | 51 | 1016.1 |
| 20260508135213 | 15 | 237 | 6.4 | 6.4 | 0.00 | 0.00 | 0.00 | 50 | 1016.2 |
| 20260508134709 | 15 | 308 | 6.4 | 6.4 | 0.00 | 0.00 | 0.00 | 51 | 1016.0 |
| 20260508134207 | 15 | 264 | 9.7 | 12.9 | 0.00 | 0.00 | 0.00 | 49 | 1016.1 |
| 20260508133703 | 15 | 282 | 4.8 | 9.7 | 0.00 | 0.00 | 0.00 | 50 | 1016.1 |
| 20260508133201 | 14 | 326 | 6.4 | 11.3 | 0.00 | 0.00 | 0.00 | 54 | 1016.1 |
| 20260508132659 | 13 | 307 | 4.8 | 6.4 | 0.00 | 0.00 | 0.00 | 54 | 1015.9 |
| 20260508132156 | 13 | 290 | 3.2 | 9.7 | 0.00 | 0.00 | 0.00 | 52 | 1016.3 |
| 20260508131651 | 13 | 318 | 3.2 | 4.8 | 0.00 | 0.00 | 0.00 | 53 | 1016.2 |
| 20260508131148 | 13 | 304 | 9.7 | 11.3 | 0.00 | 0.00 | 0.00 | 56 | 1016.2 |
| 20260508130644 | 13 | 309 | 3.2 | 6.4 | 0.00 | 0.00 | 0.00 | 53 | 1015.9 |
| 20260508130142 | 13 | 254 | 4.8 | 6.4 | 0.00 | 0.00 | 0.00 | 59 | 1016.1 |
| 20260508125637 | 13 | 283 | 3.2 | 11.3 | 0.00 | 0.00 | 0.00 | 57 | 1016.2 |
| 20260508125134 | 12 | 292 | 3.2 | 4.8 | 0.00 | 0.00 | 0.00 | 62 | 1016.1 |
| 20260508124632 | 12 | 287 | 1.6 | 3.2 | 0.00 | 0.00 | 0.00 | 60 | 1015.8 |
| 20260508124129 | 12 | 312 | 4.8 | 4.8 | 0.00 | 0.00 | 0.00 | 60 | 1016.0 |
| 20260508123627 | 12 | 253 | 1.6 | 4.8 | 0.00 | 0.00 | 0.00 | 62 | 1016.1 |
| 20260508123125 | 11 | 255 | 3.2 | 4.8 | 0.00 | 0.00 | 0.00 | 65 | 1016.1 |
| 20260508122620 | 11 | 271 | 1.6 | 4.8 | 0.00 | 0.00 | 0.00 | 67 | 1016.1 |
| 20260508122118 | 10 | 250 | 3.2 | 6.4 | 0.00 | 0.00 | 0.00 | 68 | 1016.0 |
| 20260508121616 | 10 | 259 | 3.2 | 4.8 | 0.00 | 0.00 | 0.00 | 68 | 1015.8 |
| 20260508121114 | 10 | 251 | 1.6 | 3.2 | 0.00 | 0.00 | 0.00 | 72 | 1015.8 |
| 20260508120611 | 9 | 261 | 4.8 | 4.8 | 0.00 | 0.00 | 0.00 | 70 | 1016.0 |
| 20260508120109 | 8 | 300 | 3.2 | 3.2 | 0.00 | 0.00 | 0.00 | 73 | 1015.9 |
| 20260508115606 | 8 | 253 | 3.2 | 3.2 | 0.00 | 0.00 | 0.00 | 72 | 1016.0 |
| 20260508115103 | 8 | 258 | 3.2 | 3.2 | 0.00 | 0.00 | 0.00 | 74 | 1015.8 |
| 20260508114600 | 8 | 262 | 1.6 | 6.4 | 0.00 | 0.00 | 0.00 | 74 | 1016.0 |
| 20260508114056 | 7 | 256 | 1.6 | 3.2 | 0.00 | 0.00 | 0.00 | 74 | 1015.7 |
| 20260508113554 | 7 | 265 | 3.2 | 4.8 | 0.00 | 0.00 | 0.00 | 74 | 1015.5 |
| 20260508113052 | 7 | 255 | 3.2 | 3.2 | 0.00 | 0.00 | 0.00 | 75 | 1015.5 |
| 20260508112547 | 7 | 254 | 1.6 | 1.6 | 0.00 | 0.00 | 0.00 | 77 | 1015.5 |
| 20260508112045 | 7 | 255 | 0.0 | 0.0 | 0.00 | 0.00 | 0.00 | 77 | 1015.6 |
| 20260508111542 | 6 | 255 | 0.0 | 0.0 | 0.00 | 0.00 | 0.00 | 78 | 1015.6 |
| 20260508111038 | 5 | 255 | 0.0 | 0.0 | 0.00 | 0.00 | 0.00 | 80 | 1015.7 |
| 20260508110537 | 5 | 255 | 0.0 | 1.6 | 0.00 | 0.00 | 0.00 | 81 | 1015.5 |
| 20260508110032 | 5 | 254 | 0.0 | 0.0 | 0.00 | 0.00 | 0.00 | 84 | 1015.4 |
| 20260508105527 | 4 | 254 | 0.0 | 0.0 | 0.00 | 0.00 | 0.00 | 85 | 1015.3 |
| 20260508105025 | 3 | 254 | 0.0 | 0.0 | 0.00 | 0.00 | 0.00 | 87 | 1015.2 |
| 20260508104523 | 3 | 254 | 0.0 | 0.0 | 0.00 | 0.00 | 0.00 | 87 | 1015.2 |
| 20260508104019 | 3 | 254 | 0.0 | 0.0 | 0.00 | 0.00 | 0.00 | 87 | 1015.5 |
| 20260508103516 | 3 | 254 | 0.0 | 0.0 | 0.00 | 0.00 | 0.00 | 85 | 1015.3 |
| 20260508103013 | 4 | 254 | 0.0 | 0.0 | 0.00 | 0.00 | 0.00 | 84 | 1015.0 |
| 20260508102511 | 4 | 254 | 0.0 | 0.0 | 0.00 | 0.00 | 0.00 | 83 | 1015.2 |
| 20260508102008 | 4 | 254 | 1.6 | 0.0 | 0.00 | 0.00 | 0.00 | 83 | 1015.1 |
| 20260508101506 | 4 | 254 | 0.0 | 0.0 | 0.00 | 0.00 | 0.00 | 83 | 1015.3 |
| 20260508101002 | 5 | 254 | 1.6 | 1.6 | 0.00 | 0.00 | 0.00 | 83 | 1014.8 |
| 20260508100501 | 5 | 253 | 0.0 | 0.0 | 0.00 | 0.00 | 0.00 | 83 | 1014.9 |
| 20260508095957 | 5 | 253 | 1.6 | 3.2 | 0.00 | 0.00 | 0.00 | 83 | 1015.0 |
| 20260508095455 | 5 | 252 | 0.0 | 1.6 | 0.00 | 0.00 | 0.00 | 83 | 1014.9 |
| 20260508094951 | 5 | 252 | 1.6 | 1.6 | 0.00 | 0.00 | 0.00 | 83 | 1014.9 |
| 20260508094448 | 5 | 257 | 1.6 | 3.2 | 0.00 | 0.00 | 0.00 | 83 | 1015.1 |
| 20260508093945 | 5 | 262 | 0.0 | 3.2 | 0.00 | 0.00 | 0.00 | 85 | 1015.3 |
| 20260508093442 | 4 | 259 | 1.6 | 1.6 | 0.00 | 0.00 | 0.00 | 87 | 1015.1 |
| 20260508092940 | 4 | 259 | 0.0 | 0.0 | 0.00 | 0.00 | 0.00 | 86 | 1015.0 |
| 20260508092437 | 4 | 258 | 0.0 | 1.6 | 0.00 | 0.00 | 0.00 | 86 | 1015.3 |
| 20260508091936 | 4 | 258 | 1.6 | 1.6 | 0.00 | 0.00 | 0.00 | 87 | 1015.0 |
| 20260508091432 | 4 | 258 | 0.0 | 0.0 | 0.00 | 0.00 | 0.00 | 89 | 1015.1 |
| 20260508090929 | 4 | 258 | 0.0 | 0.0 | 0.00 | 0.00 | 0.00 | 88 | 1015.1 |
| 20260508090428 | 4 | 258 | 0.0 | 0.0 | 0.00 | 0.00 | 0.00 | 88 | 1015.4 |
| 20260508085923 | 3 | 258 | 0.0 | 0.0 | 0.00 | 0.00 | 0.00 | 88 | 1015.0 |
| 20260508085420 | 3 | 258 | 1.6 | 1.6 | 0.00 | 0.00 | 0.00 | 88 | 1015.0 |
| 20260508084917 | 3 | 258 | 0.0 | 0.0 | 0.00 | 0.00 | 0.00 | 88 | 1015.1 |
| 20260508084414 | 4 | 258 | 0.0 | 0.0 | 0.00 | 0.00 | 0.00 | 88 | 1015.4 |
| 20260508083912 | 4 | 258 | 0.0 | 0.0 | 0.00 | 0.00 | 0.00 | 87 | 1015.3 |
| 20260508083409 | 4 | 258 | 0.0 | 1.6 | 0.00 | 0.00 | 0.00 | 87 | 1015.2 |
| 20260508082908 | 4 | 258 | 1.6 | 1.6 | 0.00 | 0.00 | 0.00 | 88 | 1015.3 |
| 20260508082406 | 4 | 258 | 0.0 | 1.6 | 0.00 | 0.00 | 0.00 | 88 | 1015.3 |
| 20260508081904 | 3 | 260 | 1.6 | 1.6 | 0.00 | 0.00 | 0.00 | 90 | 1015.4 |
| 20260508081400 | 4 | 260 | 0.0 | 0.0 | 0.00 | 0.00 | 0.00 | 89 | 1015.1 |
| 20260508080857 | 4 | 260 | 0.0 | 1.6 | 0.00 | 0.00 | 0.00 | 89 | 1015.1 |
| 20260508080355 | 3 | 256 | 1.6 | 1.6 | 0.00 | 0.00 | 0.00 | 91 | 1015.2 |
| 20260508075851 | 3 | 10 | 0.0 | 0.0 | 0.00 | 0.00 | 0.00 | 93 | 1015.1 |
| 20260508075348 | 3 | 11 | 0.0 | 0.0 | 0.00 | 0.00 | 0.00 | 93 | 1015.2 |
| 20260508074846 | 3 | 11 | 0.0 | 0.0 | 0.00 | 0.00 | 0.00 | 93 | 1015.1 |
| 20260508074343 | 3 | 11 | 0.0 | 0.0 | 0.00 | 0.00 | 0.00 | 92 | 1015.1 |
| 20260508073840 | 3 | 11 | 0.0 | 0.0 | 0.00 | 0.00 | 0.00 | 91 | 1015.0 |
| 20260508073338 | 3 | 11 | 0.0 | 0.0 | 0.00 | 0.00 | 0.00 | 91 | 1015.3 |
| 20260508072834 | 3 | 11 | 0.0 | 0.0 | 0.00 | 0.00 | 0.00 | 93 | 1015.1 |
| 20260508072331 | 3 | 11 | 0.0 | 0.0 | 0.00 | 0.00 | 0.00 | 93 | 1015.2 |
| 20260508071828 | 3 | 11 | 0.0 | 0.0 | 0.00 | 0.00 | 0.00 | 93 | 1015.1 |
| 20260508071326 | 3 | 11 | 0.0 | 0.0 | 0.00 | 0.00 | 0.00 | 92 | 1015.3 |
| 20260508070823 | 3 | 11 | 0.0 | 0.0 | 0.00 | 0.00 | 0.00 | 93 | 1015.3 |
| 20260508070322 | 3 | 11 | 0.0 | 0.0 | 0.00 | 0.00 | 0.00 | 92 | 1015.3 |
| 20260508065819 | 3 | 11 | 0.0 | 0.0 | 0.00 | 0.00 | 0.00 | 92 | 1015.3 |
| 20260508065317 | 3 | 11 | 0.0 | 0.0 | 0.00 | 0.00 | 0.00 | 92 | 1015.2 |
| 20260508064815 | 3 | 11 | 0.0 | 0.0 | 0.00 | 0.00 | 0.00 | 93 | 1015.1 |
| 20260508064312 | 3 | 11 | 0.0 | 0.0 | 0.00 | 0.00 | 0.00 | 94 | 1015.1 |
| 20260508063809 | 3 | 11 | 0.0 | 0.0 | 0.00 | 0.00 | 0.00 | 94 | 1015.2 |
| 20260508063307 | 3 | 11 | 0.0 | 0.0 | 0.00 | 0.00 | 0.00 | 94 | 1015.3 |
| 20260508062804 | 3 | 11 | 0.0 | 0.0 | 0.00 | 0.00 | 0.00 | 93 | 1015.4 |
| 20260508062305 | 3 | 11 | 0.0 | 1.6 | 0.00 | 0.00 | 0.00 | 93 | 1015.1 |
| 20260508061758 | 3 | 11 | 0.0 | 0.0 | 0.00 | 0.00 | 0.00 | 92 | 1015.3 |
| 20260508061255 | 3 | 11 | 0.0 | 0.0 | 0.00 | 0.00 | 0.00 | 92 | 1015.2 |
| 20260508060752 | 3 | 11 | 0.0 | 0.0 | 0.00 | 0.00 | 0.00 | 92 | 1015.2 |
| 20260508060250 | 3 | 11 | 0.0 | 0.0 | 0.00 | 0.00 | 0.00 | 93 | 1015.4 |
| 20260508055745 | 3 | 11 | 0.0 | 0.0 | 0.00 | 0.00 | 0.00 | 93 | 1015.5 |
| 20260508055243 | 3 | 11 | 0.0 | 0.0 | 0.00 | 0.00 | 0.00 | 92 | 1015.5 |
| 20260508054739 | 3 | 11 | 0.0 | 0.0 | 0.00 | 0.00 | 0.00 | 91 | 1015.7 |
| 20260508054237 | 4 | 11 | 0.0 | 0.0 | 0.00 | 0.00 | 0.00 | 90 | 1015.7 |
| 20260508053734 | 4 | 11 | 0.0 | 0.0 | 0.00 | 0.00 | 0.00 | 90 | 1015.6 |
| 20260508053231 | 4 | 11 | 0.0 | 0.0 | 0.00 | 0.00 | 0.00 | 92 | 1015.5 |
| 20260508052728 | 4 | 11 | 0.0 | 0.0 | 0.00 | 0.00 | 0.00 | 93 | 1015.5 |
| 20260508052225 | 4 | 11 | 0.0 | 0.0 | 0.00 | 0.00 | 0.00 | 93 | 1015.5 |
| 20260508051721 | 4 | 11 | 0.0 | 0.0 | 0.00 | 0.00 | 0.00 | 93 | 1015.7 |
| 20260508051217 | 4 | 11 | 0.0 | 0.0 | 0.00 | 0.00 | 0.00 | 93 | 1015.8 |
| 20260508050713 | 4 | 11 | 0.0 | 0.0 | 0.00 | 0.00 | 0.00 | 93 | 1015.5 |
| 20260508050211 | 4 | 11 | 0.0 | 0.0 | 0.00 | 0.00 | 0.00 | 93 | 1015.7 |
| 20260508045706 | 5 | 11 | 0.0 | 0.0 | 0.00 | 0.00 | 0.00 | 93 | 1015.3 |
| 20260508045204 | 5 | 11 | 0.0 | 0.0 | 0.00 | 0.00 | 0.00 | 93 | 1015.5 |
| 20260508044702 | 5 | 11 | 0.0 | 0.0 | 0.00 | 0.00 | 0.00 | 92 | 1015.4 |
| 20260508044158 | 5 | 11 | 0.0 | 0.0 | 0.00 | 0.00 | 0.00 | 92 | 1015.5 |
| 20260508043653 | 5 | 11 | 1.6 | 1.6 | 0.00 | 0.00 | 0.00 | 92 | 1015.5 |
| 20260508043152 | 5 | 11 | 0.0 | 0.0 | 0.00 | 0.00 | 0.00 | 90 | 1015.4 |
| 20260508042648 | 5 | 11 | 0.0 | 0.0 | 0.00 | 0.00 | 0.00 | 90 | 1015.5 |
| 20260508042145 | 5 | 11 | 0.0 | 0.0 | 0.00 | 0.00 | 0.00 | 92 | 1015.4 |
| 20260508041642 | 4 | 11 | 0.0 | 0.0 | 0.00 | 0.00 | 0.00 | 93 | 1015.7 |
| 20260508041138 | 4 | 11 | 0.0 | 0.0 | 0.00 | 0.00 | 0.00 | 92 | 1015.5 |
| 20260508040635 | 4 | 11 | 0.0 | 0.0 | 0.00 | 0.00 | 0.00 | 91 | 1015.4 |
| 20260508040133 | 5 | 11 | 0.0 | 0.0 | 0.00 | 0.00 | 0.00 | 91 | 1015.3 |
| 20260508035630 | 5 | 11 | 0.0 | 0.0 | 0.00 | 0.00 | 0.00 | 91 | 1015.5 |
| 20260508035127 | 5 | 11 | 0.0 | 0.0 | 0.00 | 0.00 | 0.00 | 90 | 1015.5 |
| 20260508034624 | 5 | 11 | 0.0 | 0.0 | 0.00 | 0.00 | 0.00 | 90 | 1015.7 |
| 20260508034121 | 5 | 11 | 0.0 | 0.0 | 0.00 | 0.00 | 0.00 | 89 | 1015.4 |
| 20260508033618 | 5 | 11 | 0.0 | 0.0 | 0.00 | 0.00 | 0.00 | 88 | 1015.6 |
| 20260508033117 | 5 | 11 | 0.0 | 0.0 | 0.00 | 0.00 | 0.00 | 87 | 1015.7 |
| 20260508032613 | 5 | 11 | 0.0 | 0.0 | 0.00 | 0.00 | 0.00 | 88 | 1015.7 |
| 20260508032110 | 5 | 11 | 0.0 | 0.0 | 0.00 | 0.00 | 0.00 | 85 | 1015.6 |
| 20260508031607 | 5 | 11 | 0.0 | 0.0 | 0.00 | 0.00 | 0.00 | 85 | 1015.5 |
| 20260508031103 | 5 | 11 | 0.0 | 0.0 | 0.00 | 0.00 | 0.00 | 85 | 1015.6 |
| 20260508030559 | 5 | 11 | 0.0 | 0.0 | 0.00 | 0.00 | 0.00 | 82 | 1015.8 |
| 20260508030058 | 6 | 11 | 0.0 | 0.0 | 0.00 | 0.00 | 0.00 | 83 | 1015.8 |
| 20260508025553 | 6 | 11 | 0.0 | 0.0 | 0.00 | 0.00 | 0.00 | 80 | 1015.6 |
| 20260508025051 | 6 | 11 | 0.0 | 0.0 | 0.00 | 0.00 | 0.00 | 80 | 1015.6 |
| 20260508024547 | 6 | 11 | 0.0 | 0.0 | 0.00 | 0.00 | 0.00 | 79 | 1015.4 |
| 20260508024044 | 6 | 11 | 0.0 | 0.0 | 0.00 | 0.00 | 0.00 | 77 | 1015.5 |
| 20260508023540 | 6 | 10 | 0.0 | 0.0 | 0.00 | 0.00 | 0.00 | 76 | 1015.3 |
| 20260508023038 | 6 | 11 | 0.0 | 0.0 | 0.00 | 0.00 | 0.00 | 74 | 1015.3 |
| 20260508022533 | 6 | 10 | 0.0 | 0.0 | 0.00 | 0.00 | 0.00 | 76 | 1015.4 |
| 20260508022031 | 6 | 10 | 0.0 | 0.0 | 0.00 | 0.00 | 0.00 | 73 | 1015.2 |
| 20260508021526 | 7 | 11 | 0.0 | 0.0 | 0.00 | 0.00 | 0.00 | 73 | 1015.2 |
| 20260508021022 | 7 | 11 | 0.0 | 0.0 | 0.00 | 0.00 | 0.00 | 72 | 1015.2 |
| 20260508020520 | 7 | 11 | 0.0 | 0.0 | 0.00 | 0.00 | 0.00 | 71 | 1015.2 |
| 20260508020018 | 7 | 11 | 0.0 | 0.0 | 0.00 | 0.00 | 0.00 | 71 | 1015.3 |
| 20260508015515 | 7 | 11 | 0.0 | 0.0 | 0.00 | 0.00 | 0.00 | 71 | 1015.2 |
| 20260508015012 | 8 | 11 | 0.0 | 0.0 | 0.00 | 0.00 | 0.00 | 68 | 1015.1 |
| 20260508014508 | 8 | 11 | 0.0 | 1.6 | 0.00 | 0.00 | 0.00 | 66 | 1015.0 |
| 20260508014005 | 8 | 10 | 0.0 | 0.0 | 0.00 | 0.00 | 0.00 | 63 | 1014.9 |
| 20260508013501 | 8 | 10 | 0.0 | 0.0 | 0.00 | 0.00 | 0.00 | 63 | 1014.7 |
| 20260508012958 | 8 | 10 | 0.0 | 0.0 | 0.00 | 0.00 | 0.00 | 65 | 1014.7 |
| 20260508012455 | 9 | 10 | 0.0 | 0.0 | 0.00 | 0.00 | 0.00 | 64 | 1014.8 |